INTELSAT 34 (IS-34)

Last updated on Thu Oct 30 2025 00:02:50 GMT+0000 (Coordinated Universal Time)

1 40874U 15039A 25302.46007097 -.00000276 00000+0 00000+0 0 9990 2 40874 0.0210 273.4246 0000505 169.4839 65.2802 1.00270431 37311
UTC large
Height (km)
Speed (km/s)
/
Latitude / Longitude
Inclination (degrees)
Orbital Period (minutes)
Azimuth
Elevation
Range (km)
Doppler Factor

Next 0 passes for location: London (51.5072 / 0.1276)

Sorry there are no passes over London.